Location: ??????
(41.3747°N, 22.5491°E)
Time: 04:50:57
(UTC+00:00)

Meteor 1-26 Rocket - Pass Details

Date: 01 December 2020
Orbit: 807 x 928 km, 81.3° (Epoch: 20 January)

Event Time Altitude Azimuth Distance (km) Brightness Sun altitude
Rises 16:01:31 0° 186° (S) 3,554 7.8 -11.2°
Reaches altitude 10° 16:03:59 10° 186° (S) 2,620 7.1 -11.6°
Maximum altitude 16:10:01 86° 98° (E) 936 4.4 -12.7°
Drops below altitude 10° 16:16:03 10° 11° (N) 2,624 6.5 -13.8°
Sets 16:18:31 0° 11° (N) 3,560 7.2 -14.2°
